Погода в Малышеве

Россия / Тверская область     57°49′44″N   35°37′54″E
темп.,
°C
ветер,
м/с
пор.,
м/с
влажн.,
%
обл.,
%
осадки,
мм/ч
давл.,
гПа
погр.,
м
9 марта, вт
вт900:00−17ссз259727 0.0 1013132
03:00−20ссз239939 0.0 101553
06:00−21ссз2399100 0.0 101675
09:00−20с3696100 0.1 1018260
12:00−16ссз358798 0.0 1019502
15:00−14ссз358397 0.0 1020638
18:00−17с2493100 0.0 102285
21:00−21с239881 0.0 102421
10 марта, ср
ср1000:00−24ссв22970 0.0 102621
03:00−26ссв22980 0.0 102720
06:00−27ссв22980 0.0 102819
09:00−24ссв13950 0.0 1030129
12:00−17ссв238010 0.0 1030388
15:00−14с12735 0.0 1030592
18:00−17сз11840 0.0 103020
21:00−20зсз11870 0.0 103120
11 марта, чт
чт1100:00−20з12880 0.0 103120
03:00−21з12900 0.0 103220
06:00−21з12900 0.0 103220
09:00−18юз12870 0.0 103291
12:00−12ююз23720 0.0 1031398
15:00−9ю35710 0.0 1029633
18:00−13ю36850 0.0 1027130
21:00−16ю310900 0.0 1027218
12 марта, пт
пт1200:00−17ю310900 0.0 1027247
03:00−18ю39900 0.0 1026253
06:00−18ю410890 0.0 1025266
09:00−16ю49840 0.0 1023286
12:00−11ю510830 0.0 1021427
15:00−7ю613800 0.0 1019668
18:00−7ю614810 0.0 1016777
21:00−8ю7149050 0.1 1016908
13 марта, сб
сб1300:00−8ю61389100 0.1 1015888
03:00−8ю61489100 0.3 1013806
06:00−8ю51289100 0.1 1012737
09:00−7ю51189100 0.2 1012718
12:00−5ю5992100 0.2 1011653
15:00−2ю4890100 0.7 1011598
18:00−2ю3895100 0.1 1010347
21:00−3ю399789 0.1 1010254